Location: Follega
(52.8850°N, 5.7362°E)
Time: 22:32:17
(UTC+00:00)

STARLINK-1236 - Pass Details

Date: 01 October 2020
Orbit: 548 x 551 km, 53.0° (Epoch: 26 October)

Event Time Altitude Azimuth Distance (km) Brightness Sun altitude
Exits shadow 03:15:19 79° 234° (SW) 566 3.4 -21.9°
Maximum altitude 03:15:29 82° 191° (SSW) 561 3.5 -21.9°
Drops below altitude 10° 03:19:38 10° 105° (ESE) 1,826 6.9 -21.3°
Sets 03:21:52 0° 105° (ESE) 2,718 8.0 -21.0°
